Regional Weather Roundup
Issued by NWS Midland/Odessa, TX

Skip options and go directly to product.
Home | Oldest Version | Next Version | Current Version | All | Text Only | Save Text | Print | Product List | Glossary On

Skip product version selection by date and time.   
123
ASUS44 KMAF 222002
RWRMAF
MIDLAND AREA WEATHER ROUNDUP
NATIONAL WEATHER SERVICE MIDLAND TX
300 PM CDT TUE APR 22 2014

...IN SOUTHWEST TEXAS AND SOUTHEAST NEW MEXICO...

CITY           SKY/WX    TMP DP  RH WIND       PRES   REMARKS
ALPINE         PTSUNNY   79  38  23 SE12G20   30.14F
ANDREWS        FAIR      81  43  25 SE12G18   30.07F
ARTESIA        SUNNY     81  52  36 S18G26    30.02F
BIG SPRING     SUNNY     84  39  20 SE12      30.07F
CARLSBAD       SUNNY     85  50  29 SE17G25   29.99F
DRYDEN           N/A     91  56  30 E10G18    29.98F
FORT STOCKTON  SUNNY     84  52  33 E15G23    30.02F
GUAD PASS      MOSUNNY   75  43  31 E5        30.14F
HOBBS          MOSUNNY   81  41  24 S14G22    30.06F
MARFA          MOSUNNY   81  37  21 SE13G18   30.12F
MIDLAND AIRPK  SUNNY     84  42  22 SE13G22   30.06F
MIDLAND INTL   SUNNY     84  44  24 SE14G22   30.04F
ODESSA           N/A    N/A N/A N/A MISG      30.04F
PECOS          SUNNY     86  53  31 E10G16    29.99F
PRESIDIO       FAIR      91  36  14 SE6       29.95F
SEMINOLE       SUNNY     81  38  21 S12G18    30.08F
SNYDER         SUNNY     80  37  21 CALM      30.07F
WINK           SUNNY     85  51  31 E10G23    30.00F
$$
...OTHER STATIONS IN TEXAS...

CITY           SKY/WX    TMP DP  RH WIND       PRES   REMARKS
ABILENE        SUNNY     83  42  23 E10       30.04F
AMARILLO       SUNNY     81  40  23 S18G30    30.04F
AUSTIN         MOSUNNY   84  60  44 NE10      29.98F
BROWNSVILLE    PTSUNNY  N/A N/A N/A CALM      29.93F
CORPUS CHRISTI MOSUNNY   90  66  45 E9        29.93F
DALLAS FTW     MOSUNNY   82  54  37 VRB5      29.99F
DEL RIO        SUNNY     91  52  26 MISG      29.95F
EL PASO        MOSUNNY   87  34  15 S12G26    29.96F
HOUSTON INT    PTSUNNY   85  64  49 S3        29.95F
LUBBOCK        SUNNY     83  38  20 SE15G24   30.05F
SAN ANGELO     SUNNY     84  45  25 MISG      30.03F
SAN ANTONIO    MOSUNNY   89  54  30 VRB7      29.97F
WACO           MOSUNNY   81  61  51 NE10      30.01F
WICHITA FALLS  NOT AVBL
$$
...OTHER LOCATIONS IN NEW MEXICO...

CITY           SKY/WX    TMP DP  RH WIND       PRES   REMARKS
ALAMAGORDO     SUNNY     84  39  20 S20G30    30.01F
ALBUQUERQUE    MOSUNNY   80  28  15 S15G35    30.01F
CANNON AFB     SUNNY     80  40  24 S22       30.06F
CLOVIS         SUNNY     81  43  26 S20G30    30.09F
HOLLOMAN AFB   SUNNY     85  41  20 SE21G28   29.97F
ROSWELL        SUNNY     82  49  31 S18G30    30.01F
RUIDOSO        MOSUNNY   68  32  26 SE16G22   30.18F
SANTA FE       MOSUNNY   75  27  17 SW9G30    30.06F
TRUTH OR CONSE MOSUNNY   84  31  14 S21G28    30.00F
TUCUMCARI      SUNNY     85  39  19 S23G32    29.99F
$$

USA.gov is the U.S. government's official web portal to all federal, state and local government web resources and services.